N8GD Weather Reports


Display with metric or nautical units.
time (UTC)temp
F
wind
direction
speed
MPH
gust
MPH
rain 1hr
in
rain 24hr
in
rain mn
in
humidity
%
barometer
mb
20260508064532 36 275 0.0 0.0 0.00 0.00 0.00 88 1014.2
20260508063033 36 275 0.0 0.0 0.00 0.00 0.00 88 1014.1
20260508062145 36 275 0.0 0.0 0.00 0.00 0.00 87 1014.4
20260508061532 36 275 0.0 0.0 0.00 0.00 0.00 87 1014.4
20260508060701 36 275 0.0 0.0 0.00 0.00 0.00 87 1014.4
20260508060032 36 275 0.0 0.0 0.00 0.00 0.00 86 1014.4
20260508055144 37 275 0.0 0.0 0.00 0.00 0.00 87 1014.5
20260508054534 37 275 0.0 0.0 0.00 0.00 0.00 86 1014.5
20260508053729 37 275 0.0 0.0 0.00 0.00 0.00 86 1014.6
20260508053034 37 275 0.0 0.0 0.00 0.00 0.00 86 1014.6
20260508052148 37 275 0.0 0.0 0.00 0.00 0.00 85 1014.7
20260508051533 37 275 0.0 0.0 0.00 0.00 0.00 85 1014.7
20260508050703 37 275 0.0 0.0 0.00 0.00 0.00 84 1014.5
20260508050033 37 275 0.0 0.0 0.00 0.00 0.00 84 1014.5
20260508045142 37 275 0.0 0.0 0.00 0.00 0.00 84 1014.5
20260508045028 37 275 0.0 0.0 0.00 0.00 0.00 83 1014.5
20260508043528 37 275 0.0 0.0 0.00 0.00 0.00 82 1014.5
20260508042028 38 275 0.0 0.0 0.00 0.00 0.00 81 1014.5
20260508040644 38 275 0.0 0.0 0.00 0.00 0.00 80 1014.5
20260508040528 38 275 0.0 0.0 0.00 0.00 0.00 80 1014.5
20260508035147 39 275 0.0 0.0 0.00 0.00 0.00 79 1014.4
20260508035027 39 275 0.0 0.0 0.00 0.00 0.00 79 1014.4
20260508033528 39 275 0.0 0.0 0.00 0.00 0.00 76 1014.4
20260508032027 40 275 0.0 0.0 0.00 0.00 0.00 75 1014.4
20260508030651 41 275 0.0 0.0 0.00 0.00 0.00 72 1014.4
20260508030528 41 275 0.0 0.0 0.00 0.00 0.00 72 1014.4
20260508025200 41 275 0.0 0.0 0.00 0.00 0.00 69 1014.5
20260508025028 42 275 0.0 0.0 0.00 0.00 0.00 69 1014.5
20260508023652 42 275 0.0 0.0 0.00 0.00 0.00 67 1014.5
20260508023528 43 275 0.0 0.0 0.00 0.00 0.00 67 1014.5
20260508022152 44 275 0.0 0.0 0.00 0.00 0.00 65 1014.4
20260508022029 44 275 0.0 0.0 0.00 0.00 0.00 65 1014.4
20260508020732 45 275 0.0 0.0 0.00 0.00 0.00 61 1014.2
20260508020528 45 275 0.0 0.0 0.00 0.00 0.00 60 1014.2
20260508015243 47 275 0.0 0.0 0.00 0.00 0.00 59 1014.0
20260508013742 48 275 0.0 0.0 0.00 0.00 0.00 56 1013.9
20260508012244 49 275 0.0 0.0 0.00 0.00 0.00 52 1013.8
20260508012155 49 275 0.0 0.0 0.00 0.00 0.00 51 1013.8
20260508010743 50 303 0.0 4.0 0.00 0.00 0.00 49 1013.5
20260508005242 51 308 0.0 4.0 0.00 0.00 0.00 48 1013.4
20260508003743 52 275 0.0 8.0 0.00 0.00 0.00 46 1013.2
20260508002242 52 325 2.0 8.0 0.00 0.00 0.00 45 1013.1
20260508000743 53 221 4.0 9.0 0.00 0.00 0.00 45 1012.8
20260507235244 54 275 0.0 11.0 0.00 0.00 0.00 47 1012.8
20260507233742 55 275 5.0 16.0 0.00 0.00 0.00 46 1012.7
20260507232244 56 241 8.0 16.0 0.00 0.00 0.00 45 1012.5
20260507232144 56 285 2.0 11.0 0.00 0.00 0.00 45 1012.5
20260507230742 57 283 9.0 16.0 0.00 0.00 0.00 45 1012.3
20260507225244 57 237 1.0 12.0 0.00 0.00 0.00 43 1012.3
20260507223742 58 243 2.0 12.0 0.00 0.00 0.00 41 1012.1
20260507222242 58 298 1.0 16.0 0.00 0.00 0.00 43 1011.8
20260507220743 58 250 5.0 16.0 0.00 0.00 0.00 41 1011.7
20260507215244 59 331 0.0 12.0 0.00 0.00 0.00 39 1011.4
20260507213742 59 255 2.0 10.0 0.00 0.00 0.00 43 1011.2
20260507212243 58 270 6.0 12.0 0.00 0.00 0.00 41 1011.1
20260507210744 60 225 9.0 9.0 0.00 0.00 0.00 41 1011.1
20260507205243 58 235 2.0 14.0 0.00 0.00 0.00 39 1011.1
20260507203744 61 280 5.0 14.0 0.00 0.00 0.00 40 1011.2
20260507202243 60 281 3.0 11.0 0.00 0.00 0.00 39 1011.1
20260507200744 59 331 0.0 11.0 0.00 0.00 0.00 40 1011.2
20260507195243 59 235 2.0 14.0 0.00 0.00 0.00 43 1011.4
20260507193744 60 294 0.0 13.0 0.00 0.00 0.00 41 1011.6
20260507193646 60 294 0.0 13.0 0.00 0.00 0.00 41 1011.6
20260507192243 60 275 0.0 16.0 0.00 0.00 0.00 43 1011.5
20260507190743 60 319 3.0 10.0 0.00 0.00 0.00 38 1011.6
20260507185242 59 243 0.0 17.0 0.00 0.00 0.00 42 1011.7
20260507183744 58 250 4.0 9.0 0.00 0.00 0.00 41 1011.7
20260507182243 58 280 7.0 12.0 0.00 0.00 0.00 45 1011.9
20260507180742 58 220 0.0 11.0 0.00 0.00 0.00 47 1011.9
20260507175244 58 321 0.0 15.0 0.00 0.00 0.00 49 1012.1
20260507173742 58 339 5.0 15.0 0.00 0.00 0.00 44 1012.2
20260507172244 58 319 9.0 16.0 0.00 0.00 0.00 43 1012.3
20260507170742 57 238 8.0 11.0 0.00 0.00 0.00 46 1012.5
20260507165243 57 302 6.0 12.0 0.00 0.00 0.00 47 1012.6
20260507163742 57 314 0.0 12.0 0.00 0.00 0.00 48 1012.7
20260507162244 56 270 1.0 11.0 0.00 0.00 0.00 48 1012.8
20260507162144 56 270 1.0 11.0 0.00 0.00 0.00 48 1012.8
20260507160742 56 265 2.0 9.0 0.00 0.00 0.00 51 1012.8
20260507155244 55 233 2.0 8.0 0.00 0.00 0.00 51 1012.9
20260507153742 55 233 1.0 11.0 0.00 0.00 0.00 55 1012.9
20260507152243 54 260 8.0 10.0 0.00 0.00 0.00 52 1013.0
20260507152151 54 283 6.0 8.0 0.00 0.00 0.00 55 1013.0
20260507150744 54 252 2.0 10.0 0.00 0.00 0.00 55 1013.4
20260507145244 53 233 1.0 11.0 0.00 0.00 0.00 56 1013.4
20260507143742 53 233 0.0 11.0 0.00 0.00 0.00 60 1013.6
20260507142243 53 261 2.0 7.0 0.00 0.00 0.00 61 1013.9
20260507140742 53 231 1.0 7.0 0.00 0.00 0.00 67 1014.0
20260507135243 52 219 2.0 6.0 0.00 0.00 0.00 64 1014.3
20260507135147 52 202 1.0 5.0 0.00 0.00 0.00 64 1014.3
20260507133742 51 275 0.0 5.0 0.00 0.00 0.00 66 1014.2
20260507132243 50 270 2.0 4.0 0.00 0.00 0.00 70 1014.2
20260507132150 50 270 2.0 4.0 0.00 0.00 0.00 70 1014.2
20260507130747 48 199 1.0 3.0 0.00 0.01 0.00 74 1014.4
20260507130743 48 199 1.0 3.0 0.00 0.01 0.00 74 1014.4
20260507125243 47 244 0.0 3.0 0.00 0.02 0.00 80 1014.4
20260507123753 44 231 0.0 3.0 0.00 0.02 0.00 88 1014.5
20260507123744 45 231 0.0 3.0 0.00 0.02 0.00 87 1014.5
20260507122504 41 270 0.0 0.0 0.00 0.02 0.00 95 1014.3
20260507122242 41 243 0.0 1.0 0.00 0.02 0.00 95 1014.3
20260507122146 41 270 0.0 0.0 0.00 0.02 0.00 95 1014.3
20260507120742 39 282 0.0 0.0 0.00 0.03 0.00 95 1014.3
20260507115243 37 344 0.0 0.0 0.00 0.04 0.00 95 1014.3
20260507113758 36 344 0.0 0.0 0.00 0.04 0.00 94 1014.2
20260507113742 36 344 0.0 0.0 0.00 0.04 0.00 94 1014.2
20260507112243 35 344 0.0 0.0 0.00 0.04 0.00 94 1014.0
20260507112204 35 344 0.0 0.0 0.00 0.04 0.00 94 1014.0
20260507110742 34 344 0.0 0.0 0.00 0.04 0.00 93 1013.9
20260507110729 34 344 0.0 0.0 0.00 0.04 0.00 93 1013.9
20260507105242 34 344 0.0 0.0 0.00 0.04 0.00 93 1013.9
20260507105145 34 344 0.0 0.0 0.00 0.04 0.00 93 1013.9
20260507103743 34 344 0.0 0.0 0.00 0.04 0.00 93 1013.8
20260507103646 34 344 0.0 0.0 0.00 0.04 0.00 93 1013.8
20260507102242 34 344 0.0 0.0 0.00 0.06 0.00 92 1013.7
20260507102144 34 344 0.0 0.0 0.00 0.06 0.00 92 1013.7
20260507100742 34 344 0.0 0.0 0.00 0.09 0.00 92 1013.6
20260507095243 34 344 0.0 0.0 0.00 0.10 0.00 92 1013.6
20260507095144 34 344 0.0 0.0 0.00 0.10 0.00 92 1013.6
20260507093742 35 344 0.0 0.0 0.00 0.12 0.00 92 1013.4
20260507093729 35 344 0.0 0.0 0.00 0.12 0.00 92 1013.4
20260507093644 35 344 0.0 0.0 0.00 0.12 0.00 92 1013.4
20260507092244 35 344 0.0 0.0 0.00 0.13 0.00 91 1013.6
20260507092146 35 344 0.0 0.0 0.00 0.13 0.00 91 1013.6
20260507090742 35 344 0.0 0.0 0.00 0.15 0.00 91 1013.6
20260507090645 35 344 0.0 0.0 0.00 0.15 0.00 91 1013.6
20260507085144 36 344 0.0 0.0 0.00 0.17 0.00 91 1013.7
20260507084555 36 344 0.0 0.0 0.00 0.19 0.00 90 1013.7
20260507083055 36 344 0.0 0.0 0.00 0.21 0.00 90 1013.7
20260507082144 36 344 0.0 0.0 0.00 0.23 0.00 90 1013.7
20260507081555 37 344 0.0 0.0 0.00 0.26 0.00 89 1013.7
20260507080724 37 344 0.0 0.0 0.00 0.28 0.00 89 1013.6
20260507080055 37 344 0.0 0.0 0.00 0.28 0.00 89 1013.6
20260507074555 38 344 0.0 0.0 0.00 0.33 0.00 88 1013.6
20260507073055 38 344 0.0 0.0 0.00 0.34 0.00 87 1013.6
20260507072144 39 344 0.0 0.0 0.00 0.34 0.00 87 1013.7
20260507071555 39 344 0.0 0.0 0.00 0.34 0.00 86 1013.7
20260507070055 40 344 0.0 0.0 0.00 0.34 0.00 86 1013.7